Location: Baili�vre
(50.0696°N, 4.2409°E)
Time: 06:14:36
(UTC+00:00)

Cosmos 44 - Pass Details

Date: 08 August 2020
Orbit: 582 x 779 km, 65.1° (Epoch: 26 September)

Event Time Altitude Azimuth Distance (km) Brightness Sun altitude
Rises 21:13:05 0° 321° (NW) 2,994 8.5 -15.8°
Reaches altitude 10° 21:15:30 10° 330° (NNW) 2,112 7.1 -16.0°
Maximum altitude 21:19:59 38° 39° (NE) 1,075 4.4 -16.5°
Enters shadow 21:23:12 18° 98° (E) 1,717 4.9 -16.8°
